• In Belarus
  • List of Countries
  • For 7 days
  • Water Temperature
  • Satellite Maps
  • Weather Map
  • Weather Widgets
  • user-avatar
    Login

    Hourly Weather Ondjiwa

    Today, 26 May, Sunday

    Time Temperature Precipitation Wind Pressure Humidity
    00:00 +16°C° 0 mm 3 mps 669 mmHg 36%
    01:00 +16°C° 0 mm 3 mps 669 mmHg 38%
    02:00 +14°C° 0 mm 3 mps 669 mmHg 40%
    03:00 +14°C° 0 mm 3 mps 669 mmHg 43%
    04:00 +13°C° 0 mm 3 mps 669 mmHg 45%
    05:00 +13°C° 0 mm 3 mps 669 mmHg 46%
    06:00 +13°C° 0 mm 3 mps 669 mmHg 47%
    07:00 +12°C° 0 mm 3 mps 670 mmHg 48%
    08:00 +17°C° 0 mm 3 mps 671 mmHg 40%
    09:00 +21°C° 0 mm 4 mps 671 mmHg 32%
    10:00 +26°C° 0 mm 5 mps 672 mmHg 24%
    11:00 +27°C° 0 mm 5 mps 672 mmHg 22%
    12:00 +28°C° 0 mm 4 mps 671 mmHg 20%
    13:00 +30°C° 0 mm 4 mps 671 mmHg 17%
    14:00 +30°C° 0 mm 3 mps 670 mmHg 17%
    15:00 +30°C° 0 mm 3 mps 669 mmHg 17%
    16:00 +30°C° 0 mm 3 mps 669 mmHg 16%
    17:00 +27°C° 0 mm 2 mps 669 mmHg 21%
    18:00 +24°C° 0 mm 2 mps 668 mmHg 25%
    19:00 +20°C° 0 mm 2 mps 668 mmHg 29%
    20:00 +19°C° 0 mm 2 mps 668 mmHg 31%
    21:00 +19°C° 0 mm 2 mps 668 mmHg 34%
    22:00 +18°C° 0 mm 2 mps 668 mmHg 37%
    23:00 +17°C° 0 mm 2 mps 668 mmHg 39%

    Tomorrow, 27 May, Monday

    Time Temperature Precipitation Wind Pressure Humidity
    00:00 +16°C° 0 mm 2 mps 668 mmHg 41%
    01:00 +16°C° 0 mm 2 mps 668 mmHg 43%
    02:00 +15°C° 0 mm 2 mps 668 mmHg 45%
    03:00 +15°C° 0 mm 2 mps 667 mmHg 46%
    04:00 +13°C° 0 mm 3 mps 667 mmHg 48%
    05:00 +13°C° 0 mm 3 mps 668 mmHg 49%
    06:00 +13°C° 0 mm 3 mps 668 mmHg 50%
    07:00 +13°C° 0 mm 3 mps 668 mmHg 50%
    08:00 +18°C° 0 mm 4 mps 669 mmHg 42%
    09:00 +22°C° 0 mm 4 mps 670 mmHg 34%
    10:00 +26°C° 0 mm 5 mps 671 mmHg 26%
    11:00 +28°C° 0 mm 5 mps 671 mmHg 23%
    12:00 +29°C° 0 mm 4 mps 670 mmHg 21%
    13:00 +30°C° 0 mm 3 mps 669 mmHg 18%
    14:00 +30°C° 0 mm 3 mps 669 mmHg 18%
    15:00 +30°C° 0 mm 3 mps 668 mmHg 17%
    16:00 +30°C° 0 mm 2 mps 667 mmHg 17%
    17:00 +27°C° 0 mm 2 mps 667 mmHg 21%
    18:00 +25°C° 0 mm 2 mps 667 mmHg 25%
    19:00 +21°C° 0 mm 2 mps 667 mmHg 29%
    20:00 +20°C° 0 mm 2 mps 667 mmHg 31%
    21:00 +19°C° 0 mm 2 mps 667 mmHg 33%
    22:00 +18°C° 0 mm 3 mps 667 mmHg 35%
    23:00 +18°C° 0 mm 3 mps 667 mmHg 36%

    Day after tomorrow, 28 May, Tuesday

    Time Temperature Precipitation Wind Pressure Humidity
    00:00 +17°C° 0 mm 3 mps 667 mmHg 37%
    01:00 +16°C° 0 mm 3 mps 667 mmHg 38%
    02:00 +16°C° 0 mm 3 mps 667 mmHg 39%
    03:00 +14°C° 0 mm 3 mps 667 mmHg 41%
    04:00 +13°C° 0 mm 3 mps 666 mmHg 42%
    05:00 +13°C° 0 mm 3 mps 667 mmHg 43%
    06:00 +14°C° 0 mm 2 mps 667 mmHg 44%
    07:00 +14°C° 0 mm 2 mps 668 mmHg 45%
    08:00 +18°C° 0 mm 3 mps 668 mmHg 38%
    09:00 +22°C° 0 mm 4 mps 669 mmHg 32%
    10:00 +26°C° 0 mm 4 mps 670 mmHg 25%
    11:00 +28°C° 0 mm 4 mps 669 mmHg 23%
    12:00 +30°C° 0 mm 3 mps 669 mmHg 20%
    13:00 +31°C° 0 mm 3 mps 668 mmHg 17%
    14:00 +31°C° 0 mm 2 mps 668 mmHg 17%
    15:00 +31°C° 0 mm 2 mps 667 mmHg 16%
    16:00 +31°C° 0 mm 1 mps 667 mmHg 16%
    17:00 +29°C° 0 mm 1 mps 667 mmHg 19%
    18:00 +26°C° 0 mm 1 mps 666 mmHg 23%
    19:00 +23°C° 0 mm 2 mps 666 mmHg 26%
    20:00 +21°C° 0 mm 2 mps 666 mmHg 28%
    21:00 +20°C° 0 mm 2 mps 667 mmHg 30%
    22:00 +19°C° 0 mm 2 mps 667 mmHg 31%
    23:00 +18°C° 0 mm 2 mps 666 mmHg 34%

    29 May, Wednesday

    Time Temperature Precipitation Wind Pressure Humidity
    00:00 +17°C° 0 mm 2 mps 666 mmHg 36%
    01:00 +16°C° 0 mm 1 mps 666 mmHg 38%
    02:00 +16°C° 0 mm 1 mps 666 mmHg 39%
    03:00 +16°C° 0 mm 1 mps 666 mmHg 41%
    04:00 +15°C° 0 mm 1 mps 665 mmHg 42%
    05:00 +16°C° 0 mm 2 mps 666 mmHg 42%
    06:00 +16°C° 0 mm 2 mps 666 mmHg 41%
    07:00 +16°C° 0 mm 2 mps 667 mmHg 41%
    08:00 +19°C° 0 mm 3 mps 668 mmHg 35%
    09:00 +24°C° 0 mm 3 mps 669 mmHg 29%
    10:00 +27°C° 0 mm 4 mps 670 mmHg 23%
    11:00 +29°C° 0 mm 3 mps 669 mmHg 22%
    12:00 +31°C° 0 mm 3 mps 669 mmHg 20%
    13:00 +33°C° 0 mm 3 mps 668 mmHg 18%
    14:00 +33°C° 0 mm 3 mps 668 mmHg 18%
    15:00 +33°C° 0 mm 3 mps 667 mmHg 17%
    16:00 +32°C° 0 mm 2 mps 667 mmHg 17%
    17:00 +29°C° 0 mm 2 mps 666 mmHg 21%
    18:00 +26°C° 0 mm 1 mps 666 mmHg 24%
    19:00 +23°C° 0 mm 1 mps 666 mmHg 28%
    20:00 +22°C° 0 mm 1 mps 666 mmHg 30%
    21:00 +21°C° 0 mm 1 mps 666 mmHg 33%
    22:00 +20°C° 0 mm 1 mps 666 mmHg 35%
    23:00 +20°C° 0 mm 1 mps 666 mmHg 36%

    30 May, Thursday

    Time Temperature Precipitation Wind Pressure Humidity
    00:00 +18°C° 0 mm 2 mps 666 mmHg 37%
    01:00 +18°C° 0 mm 2 mps 666 mmHg 38%
    02:00 +17°C° 0 mm 2 mps 666 mmHg 38%
    03:00 +16°C° 0 mm 2 mps 666 mmHg 39%
    04:00 +16°C° 0 mm 2 mps 666 mmHg 40%
    05:00 +16°C° 0 mm 2 mps 666 mmHg 42%
    06:00 +16°C° 0 mm 2 mps 667 mmHg 44%
    07:00 +15°C° 0 mm 1 mps 667 mmHg 45%
    08:00 +19°C° 0 mm 2 mps 668 mmHg 38%
    09:00 +23°C° 0 mm 2 mps 669 mmHg 31%
    10:00 +27°C° 0 mm 3 mps 670 mmHg 24%
    11:00 +28°C° 0 mm 3 mps 669 mmHg 22%
    12:00 +30°C° 0 mm 2 mps 669 mmHg 20%
    13:00 +31°C° 0 mm 2 mps 668 mmHg 18%
    14:00 +31°C° 0 mm 2 mps 668 mmHg 18%
    15:00 +31°C° 0 mm 2 mps 667 mmHg 17%
    16:00 +31°C° 0 mm 2 mps 667 mmHg 17%
    17:00 +28°C° 0 mm 2 mps 667 mmHg 21%
    18:00 +26°C° 0 mm 2 mps 667 mmHg 24%
    19:00 +23°C° 0 mm 2 mps 666 mmHg 28%
    20:00 +23°C° 0 mm 2 mps 667 mmHg 29%
    21:00 +21°C° 0 mm 2 mps 667 mmHg 30%
    22:00 +21°C° 0 mm 2 mps 667 mmHg 31%
    23:00 +20°C° 0 mm 2 mps 667 mmHg 32%

    31 May, Friday

    Time Temperature Precipitation Wind Pressure Humidity
    00:00 +20°C° 0 mm 2 mps 667 mmHg 32%
    01:00 +19°C° 0 mm 2 mps 666 mmHg 33%
    02:00 +19°C° 0 mm 1 mps 666 mmHg 36%
    03:00 +16°C° 0 mm 1 mps 666 mmHg 40%
    04:00 +14°C° 0 mm 0 mps 665 mmHg 43%
    05:00 +14°C° 0 mm 0 mps 666 mmHg 43%
    06:00 +14°C° 0 mm 0 mps 667 mmHg 43%
    07:00 +14°C° 0 mm 0 mps 667 mmHg 42%
    08:00 +20°C° 0 mm 1 mps 668 mmHg 35%
    09:00 +24°C° 0 mm 1 mps 669 mmHg 29%
    10:00 +28°C° 0 mm 2 mps 670 mmHg 22%
    11:00 +30°C° 0 mm 1 mps 669 mmHg 19%
    12:00 +31°C° 0 mm 1 mps 669 mmHg 17%
    13:00 +33°C° 0 mm 1 mps 669 mmHg 14%
    14:00 +33°C° 0 mm 1 mps 668 mmHg 14%
    15:00 +30°C° 0 mm 0 mps 668 mmHg 14%
    16:00 +30°C° 0 mm 0 mps 667 mmHg 14%
    17:00 +29°C° 0 mm 1 mps 667 mmHg 17%
    18:00 +26°C° 0 mm 1 mps 667 mmHg 20%
    19:00 +23°C° 0 mm 2 mps 667 mmHg 23%
    20:00 +23°C° 0 mm 2 mps 667 mmHg 25%
    21:00 +21°C° 0 mm 2 mps 667 mmHg 26%
    22:00 +20°C° 0 mm 2 mps 667 mmHg 27%
    23:00 +20°C° 0 mm 2 mps 667 mmHg 28%
    Show more